AAL1080 KDCA-KMIA

Flight info

Callsign AAL1080
Flight time N/A
Altitude 36000
Route AMEEE1 SCOOB EARZZ SKARP Y313 HOAGG BNFSH3
Aircraft B738/M-SDE2E3FGHIRWXY/LB1

Departure

Time 2026-05-06 23:17
Airport Ronald Reagan Washington National Airport (KDCA)

Arrival

Time N/A
Airport Miami International Airport (KMIA)
Time Latitude Longitude Altitude Speed Heading
2026-05-06 22:55 38.85477 -77.04146 23 ft 0 kts 170°
2026-05-06 23:09 38.85496 -77.04152 27 ft 4 kts 149°
2026-05-06 23:09 38.85512 -77.04174 27 ft 4 kts 98°
2026-05-06 23:09 38.85512 -77.04191 23 ft 0 kts 72°
2026-05-06 23:12 38.85513 -77.04188 26 ft 2 kts 72°
2026-05-06 23:12 38.85523 -77.04144 27 ft 9 kts 74°
2026-05-06 23:12 38.85538 -77.04069 27 ft 8 kts 73°
2026-05-06 23:13 38.85555 -77.04004 26 ft 8 kts 69°
2026-05-06 23:13 38.85589 -77.03960 24 ft 7 kts 12°
2026-05-06 23:13 38.85598 -77.03960 24 ft 1 kts 355°
2026-05-06 23:13 38.85602 -77.03961 26 ft 1 kts 352°
2026-05-06 23:14 38.85639 -77.03965 27 ft 12 kts 354°
2026-05-06 23:14 38.85722 -77.03975 28 ft 12 kts 354°
2026-05-06 23:14 38.85803 -77.03983 26 ft 12 kts 355°
2026-05-06 23:14 38.85882 -77.03992 25 ft 11 kts 358°
2026-05-06 23:15 38.85957 -77.03974 25 ft 11 kts 17°
2026-05-06 23:15 38.86004 -77.03956 27 ft 0 kts 17°
2026-05-06 23:15 38.86005 -77.03956 23 ft 1 kts 17°
2026-05-06 23:16 38.86028 -77.03948 24 ft 7 kts 14°
2026-05-06 23:16 38.86083 -77.03914 24 ft 11 kts 50°
2026-05-06 23:16 38.86040 -77.03863 24 ft 14 kts 174°
2026-05-06 23:16 38.85733 -77.03834 25 ft 80 kts 176°
2026-05-06 23:17 38.84938 -77.03753 24 ft 144 kts 175°
2026-05-06 23:17 38.83817 -77.03663 363 ft 167 kts 178°
2026-05-06 23:17 38.82645 -77.03569 1137 ft 170 kts 172°
2026-05-06 23:17 38.81503 -77.03289 1951 ft 166 kts 171°
2026-05-06 23:18 38.80370 -77.03020 2609 ft 174 kts 172°
2026-05-06 23:18 38.79062 -77.02716 2879 ft 201 kts 175°
2026-05-06 23:18 38.77665 -77.02398 3040 ft 223 kts 176°
2026-05-06 23:18 38.76108 -77.02046 3538 ft 231 kts 175°
2026-05-06 23:19 38.74635 -77.01387 3965 ft 253 kts 156°
2026-05-06 23:19 38.73120 -77.00052 4512 ft 268 kts 152°
2026-05-06 23:19 38.71586 -76.98666 5158 ft 276 kts 152°
2026-05-06 23:19 38.70004 -76.97241 5916 ft 280 kts 152°
2026-05-06 23:20 38.68364 -76.95775 6598 ft 287 kts 153°
2026-05-06 23:20 38.66738 -76.94329 7332 ft 290 kts 153°
2026-05-06 23:20 38.65073 -76.92851 8062 ft 293 kts 153°
2026-05-06 23:20 38.63365 -76.91348 8774 ft 299 kts 152°
2026-05-06 23:21 38.61645 -76.89815 9485 ft 303 kts 153°
2026-05-06 23:21 38.59907 -76.88278 10183 ft 306 kts 152°
2026-05-06 23:21 38.58101 -76.86692 10488 ft 326 kts 152°
2026-05-06 23:21 38.56169 -76.85001 10652 ft 348 kts 152°
2026-05-06 23:22 38.54132 -76.83205 10987 ft 362 kts 151°
2026-05-06 23:22 38.52054 -76.81344 11565 ft 367 kts 150°
2026-05-06 23:22 38.49958 -76.79459 12298 ft 368 kts 150°
2026-05-06 23:22 38.47855 -76.77568 12980 ft 371 kts 150°
2026-05-06 23:23 38.45720 -76.75660 13538 ft 378 kts 150°
2026-05-06 23:23 38.43556 -76.73730 14103 ft 384 kts 151°
2026-05-06 23:23 38.41311 -76.71868 14708 ft 383 kts 160°
2026-05-06 23:23 38.38797 -76.70933 15296 ft 374 kts 179°
2026-05-06 23:24 38.36221 -76.70515 15957 ft 375 kts 180°
2026-05-06 23:24 38.33605 -76.70134 16528 ft 380 kts 181°
2026-05-06 23:24 38.30963 -76.69750 17092 ft 385 kts 181°
2026-05-06 23:24 38.28288 -76.69346 17701 ft 389 kts 181°
2026-05-06 23:25 38.25588 -76.68925 18265 ft 393 kts 181°
2026-05-06 23:25 38.22861 -76.68492 18786 ft 397 kts 181°
2026-05-06 23:25 38.20104 -76.68044 19356 ft 401 kts 180°
2026-05-06 23:25 38.17367 -76.67056 19896 ft 421 kts 162°
2026-05-06 23:26 38.14948 -76.65046 20399 ft 441 kts 144°
2026-05-06 23:26 38.12932 -76.61999 20945 ft 457 kts 126°
2026-05-06 23:26 38.11617 -76.58157 21405 ft 470 kts 107°
2026-05-06 23:26 38.11157 -76.54025 21853 ft 477 kts 93°
2026-05-06 23:27 38.11102 -76.49810 22294 ft 481 kts 90°
2026-05-06 23:27 38.11135 -76.45537 22693 ft 485 kts 89°
2026-05-06 23:27 38.11194 -76.41300 23089 ft 489 kts 89°
2026-05-06 23:27 38.11262 -76.36931 23508 ft 492 kts 89°
2026-05-06 23:28 38.11336 -76.32575 23937 ft 494 kts 89°
2026-05-06 23:28 38.11416 -76.28257 24335 ft 497 kts 89°
2026-05-06 23:28 38.11504 -76.23811 24763 ft 499 kts 89°
2026-05-06 23:28 38.11308 -76.19402 25125 ft 499 kts 103°
2026-05-06 23:29 38.10250 -76.15243 25450 ft 492 kts 121°
2026-05-06 23:29 38.08439 -76.11632 25779 ft 483 kts 134°
2026-05-06 23:29 38.06298 -76.08371 26051 ft 483 kts 137°
2026-05-06 23:29 38.04075 -76.05198 26305 ft 486 kts 140°
2026-05-06 23:30 38.01521 -76.02491 26555 ft 474 kts 156°
2026-05-06 23:30 37.98532 -76.00795 26902 ft 457 kts 173°
2026-05-06 23:30 37.95501 -76.00132 27290 ft 442 kts 185°
2026-05-06 23:30 37.92479 -76.00271 27608 ft 429 kts 198°
2026-05-06 23:31 37.89628 -76.01226 27920 ft 421 kts 206°
2026-05-06 23:31 37.86845 -76.02436 28179 ft 423 kts 207°
2026-05-06 23:31 37.84082 -76.03684 28463 ft 424 kts 207°
2026-05-06 23:31 37.81292 -76.04949 28763 ft 425 kts 207°
2026-05-06 23:32 37.78496 -76.06206 29032 ft 427 kts 206°
2026-05-06 23:32 37.75688 -76.07454 29309 ft 428 kts 206°
2026-05-06 23:32 37.72871 -76.08692 29546 ft 430 kts 206°
2026-05-06 23:32 37.70029 -76.09933 29794 ft 432 kts 206°
2026-05-06 23:33 37.67189 -76.11165 30156 ft 431 kts 206°
2026-05-06 23:33 37.64367 -76.12384 30572 ft 428 kts 206°
2026-05-06 23:33 37.61549 -76.13601 30922 ft 427 kts 206°
2026-05-06 23:33 37.58812 -76.14782 31219 ft 427 kts 206°